GW2708 Weather Reports


time (UTC)temp
C
wind
direction
speed
KPH
gust
KPH
rain 1hr
cm
rain 24hr
cm
rain mn
cm
humidity
%
barometer
mb
20260505091020 5 284 3.2 11.3 0.00 0.00 0.00 74 997.2
20260505090517 5 226 1.6 6.4 0.00 0.00 0.00 73 997.2
20260505090035 5 302 1.6 8.0 0.00 0.00 0.00 73 997.2
20260505085520 5 281 3.2 9.7 0.00 0.00 0.00 73 997.2
20260505085017 5 274 3.2 9.7 0.00 0.00 0.00 73 997.2
20260505084536 5 238 3.2 11.3 0.00 0.00 0.00 73 997.2
20260505084019 5 277 3.2 11.3 0.00 0.00 0.00 73 997.3
20260505083518 5 277 3.2 11.3 0.00 0.00 0.00 73 997.2
20260505083035 5 252 4.8 11.3 0.00 0.00 0.00 73 997.1
20260505082519 5 287 1.6 8.0 0.00 0.00 0.00 74 997.1
20260505082018 5 260 1.6 8.0 0.00 0.00 0.00 73 996.8
20260505081539 6 311 3.2 9.7 0.00 0.00 0.00 73 996.8
20260505081019 6 307 3.2 11.3 0.00 0.00 0.00 73 996.9
20260505080519 6 296 3.2 14.5 0.00 0.00 0.00 73 997.0
20260505080036 6 314 6.4 14.5 0.00 0.00 0.00 72 997.1
20260505075517 6 293 8.0 16.1 0.00 0.00 0.00 72 996.9
20260505075021 6 327 6.4 16.1 0.00 0.00 0.00 72 996.9
20260505074537 6 284 6.4 12.9 0.00 0.00 0.00 73 996.6
20260505074018 6 12 4.8 12.9 0.00 0.00 0.00 73 996.5
20260505073520 7 319 6.4 12.9 0.00 0.00 0.00 73 996.6
20260505073035 7 300 8.0 12.9 0.00 0.00 0.00 73 996.6
20260505072521 7 306 4.8 16.1 0.00 0.00 0.00 74 996.6
20260505072019 7 352 4.8 16.1 0.00 0.00 0.00 75 996.6
20260505071550 7 325 4.8 9.7 0.00 0.00 0.00 76 996.7
20260505071020 7 348 4.8 9.7 0.00 0.00 0.00 77 996.6
20260505070523 7 356 3.2 9.7 0.00 0.00 0.00 77 996.6
20260505070039 7 262 3.2 9.7 0.00 0.00 0.00 77 996.5
20260505065522 7 304 3.2 9.7 0.00 0.00 0.00 78 996.4
20260505065021 7 207 1.6 9.7 0.00 0.00 0.00 78 996.4
20260505064536 7 94 3.2 9.7 0.00 0.00 0.00 78 996.4
20260505064018 7 243 3.2 11.3 0.00 0.00 0.00 79 996.3
20260505063517 7 239 4.8 11.3 0.00 0.00 0.00 79 996.3
20260505063039 7 307 4.8 11.3 0.00 0.00 0.00 80 996.3
20260505062526 7 255 4.8 12.9 0.00 0.00 0.00 80 996.3
20260505062020 7 328 4.8 12.9 0.00 0.00 0.00 78 996.2
20260505061604 7 328 4.8 14.5 0.00 0.00 0.00 78 996.2
20260505061021 7 318 6.4 14.5 0.00 0.00 0.00 79 996.2
20260505060521 7 257 3.2 12.9 0.00 0.00 0.00 78 996.1
20260505060036 8 312 4.8 12.9 0.00 0.00 0.00 74 996.1
20260505055524 8 268 4.8 12.9 0.00 0.00 0.00 71 996.1
20260505055018 8 280 4.8 17.7 0.00 0.00 0.00 71 995.8
20260505054535 8 317 4.8 17.7 0.00 0.00 0.00 70 995.7
20260505054018 8 30 4.8 17.7 0.00 0.00 0.00 72 995.6
20260505053517 8 32 3.2 14.5 0.00 0.00 0.00 73 995.5
20260505053041 8 44 4.8 14.5 0.00 0.00 0.00 74 995.4
20260505052518 8 353 4.8 11.3 0.00 0.00 0.00 76 995.5
20260505052020 8 184 3.2 9.7 0.00 0.00 0.00 79 995.4
20260505051601 8 331 3.2 9.7 0.00 0.00 0.00 80 995.5
20260505051021 8 122 3.2 9.7 0.00 0.00 0.00 81 995.3
20260505050521 8 103 1.6 8.0 0.00 0.00 0.00 82 995.2
20260505041543 8 159 3.2 4.8 0.00 0.00 0.00 84 995.0
20260505041018 8 141 1.6 4.8 0.00 0.00 0.00 83 994.9
20260505040518 8 354 1.6 8.0 0.00 0.00 0.00 83 994.8
20260505040040 8 290 0.0 9.7 0.00 0.00 0.00 83 994.9
20260505035521 8 26 4.8 9.7 0.00 0.10 0.00 83 994.8
20260505035018 8 13 3.2 8.0 0.00 0.10 0.00 83 994.9
20260505034535 8 49 1.6 8.0 0.00 0.10 0.00 82 995.0
20260505034020 8 279 1.6 9.7 0.00 0.10 0.00 82 995.0
20260505033523 8 123 3.2 9.7 0.00 0.10 0.00 82 994.9
20260505033035 8 10 4.8 9.7 0.00 0.10 0.00 81 994.8
20260505032521 9 277 3.2 11.3 0.00 0.10 0.00 81 994.9
20260505032019 9 291 4.8 11.3 0.00 0.10 0.00 80 994.7
20260505031534 9 306 3.2 11.3 0.00 0.10 0.00 79 994.7
20260505031020 9 295 1.6 9.7 0.00 0.10 0.00 78 994.6
20260505030519 9 286 3.2 9.7 0.00 0.10 0.00 77 994.6
20260505030035 9 328 1.6 8.0 0.00 0.10 0.00 78 994.6
20260505025519 9 281 1.6 8.0 0.00 0.10 0.00 78 994.6
20260505025017 9 231 3.2 8.0 0.00 0.10 0.00 78 994.6
20260505024544 9 161 3.2 9.7 0.00 0.10 0.00 78 994.5
20260505024020 9 102 3.2 14.5 0.00 0.10 0.00 79 994.4
20260505023520 9 20 8.0 14.5 0.00 0.10 0.00 78 994.6
20260505023037 9 301 4.8 19.3 0.00 0.10 0.00 79 994.5
20260505022520 10 292 6.4 19.3 0.00 0.10 0.00 78 994.5
20260505022017 10 285 4.8 20.9 0.00 0.10 0.00 78 994.6
20260505021536 10 304 8.0 20.9 0.00 0.10 0.00 77 994.7
20260505021019 10 266 8.0 20.9 0.00 0.10 0.00 76 994.8
20260505020519 10 172 11.3 20.9 0.00 0.10 0.00 74 994.6
20260505020035 11 251 8.0 19.3 0.00 0.10 0.00 72 994.5
20260505015518 11 307 11.3 19.3 0.00 0.18 0.00 70 994.4
20260505015018 11 283 6.4 19.3 0.00 0.18 0.00 70 994.4
20260505014539 12 271 6.4 16.1 0.00 0.18 0.00 70 994.1
20260505014024 12 260 8.0 16.1 0.00 0.18 0.00 69 994.0
20260505013520 12 328 4.8 16.1 0.00 0.18 0.00 68 993.8
20260505013040 12 350 4.8 16.1 0.00 0.18 0.00 68 993.4
20260505012520 12 300 4.8 9.7 0.00 0.18 0.00 68 993.4
20260505012018 12 233 1.6 6.4 0.00 0.18 0.00 66 993.6
20260505011538 12 257 0.0 4.8 0.00 0.18 0.00 65 993.8
20260505011020 12 0 0.0 4.8 0.00 0.18 0.00 64 993.6
20260505010520 12 319 0.0 4.8 0.00 0.18 0.00 63 993.3
20260505010037 12 307 1.6 6.4 0.00 0.18 0.00 63 993.3
20260505005518 12 262 1.6 6.4 0.00 0.18 0.00 62 993.4
20260505005018 12 265 3.2 9.7 0.00 0.18 0.00 62 993.5
20260505004535 12 300 3.2 11.3 0.00 0.18 0.00 61 993.7
20260505004019 12 293 4.8 11.3 0.00 0.18 0.00 60 994.0
20260505003521 12 283 1.6 9.7 0.00 0.18 0.00 59 993.4
20260505003034 12 307 3.2 9.7 0.00 0.18 0.00 58 993.2
20260505002518 12 280 4.8 9.7 0.00 0.18 0.00 56 993.3
20260505002018 12 271 4.8 11.3 0.00 0.18 0.00 57 993.7
20260505001536 12 214 3.2 27.4 0.00 0.18 0.00 56 993.1
20260505001018 13 338 6.4 27.4 0.00 0.18 0.00 55 993.0
20260505000519 13 337 11.3 27.4 0.00 0.18 0.00 54 993.3
20260505000044 12 259 1.6 4.8 0.00 0.18 0.00 53 992.5
20260504235520 12 307 1.6 9.7 0.00 0.18 0.00 54 992.2
20260504235022 12 252 3.2 9.7 0.00 0.18 0.00 54 992.0
20260504234536 12 192 4.8 12.9 0.00 0.18 0.00 54 992.0
20260504234020 12 212 6.4 12.9 0.00 0.18 0.00 53 992.2
20260504233517 13 220 4.8 12.9 0.00 0.18 0.00 53 992.2
20260504233038 12 219 6.4 12.9 0.00 0.18 0.00 53 992.0
20260504232521 12 230 6.4 14.5 0.00 0.18 0.00 54 992.1
20260504232017 12 209 6.4 14.5 0.00 0.18 0.00 54 991.9
20260504231531 13 184 8.0 16.1 0.00 0.18 0.00 54 992.0
20260504231018 13 271 9.7 16.1 0.00 0.18 0.00 54 992.2
20260504230520 13 215 9.7 16.1 0.00 0.18 0.00 53 992.3
20260504230048 13 212 4.8 9.7 0.00 0.18 0.00 54 992.6
20260504225519 13 247 4.8 14.5 0.00 0.18 0.00 52 992.8
20260504225018 13 274 6.4 17.7 0.00 0.18 0.00 52 992.9
20260504224536 14 226 4.8 19.3 0.00 0.18 0.00 52 993.0
20260504224020 15 225 11.3 19.3 0.00 0.18 0.00 50 993.3
20260504223520 15 290 3.2 9.7 0.00 0.18 0.00 48 993.1
20260504223035 15 225 3.2 8.0 0.00 0.18 0.00 48 993.3
20260504222520 15 248 3.2 12.9 0.00 0.18 0.00 49 993.6
20260504222019 15 239 4.8 12.9 0.00 0.18 0.00 48 993.8
20260504221533 15 236 3.2 9.7 0.00 0.18 0.00 48 993.3
20260504221017 15 331 3.2 22.5 0.00 0.18 0.00 47 993.2
20260504220520 15 301 11.3 22.5 0.00 0.18 0.00 46 993.6
20260504220035 16 240 4.8 27.4 0.00 0.18 0.00 47 993.2
20260504215518 16 277 12.9 27.4 0.00 0.18 0.00 44 993.2
20260504215020 17 322 9.7 27.4 0.00 0.18 0.00 43 993.2
20260504214536 16 289 4.8 20.9 0.00 0.18 0.00 45 993.0
20260504214023 16 241 4.8 20.9 0.00 0.18 0.00 45 992.8
20260504213519 16 230 11.3 20.9 0.00 0.18 0.00 44 992.6
20260504213035 16 228 6.4 17.7 0.00 0.18 0.00 46 992.7
20260504212521 16 231 6.4 17.7 0.00 0.18 0.00 45 992.7
20260504212019 16 277 9.7 19.3 0.00 0.18 0.00 45 992.7
20260504211538 16 308 8.0 20.9 0.00 0.18 0.00 46 992.7
20260504211020 17 284 8.0 20.9 0.00 0.18 0.00 45 992.7
20260504210520 17 229 9.7 27.4 0.00 0.18 0.00 44 992.5
20260504210043 17 296 9.7 27.4 0.00 0.18 0.00 46 992.6
20260504205519 17 247 12.9 22.5 0.00 0.18 0.00 46 992.5
20260504205018 17 271 9.7 22.5 0.00 0.18 0.00 46 992.6
20260504204546 17 189 4.8 24.1 0.00 0.18 0.00 49 992.5
20260504204023 17 254 12.9 30.6 0.00 0.18 0.00 47 992.5
20260504203520 17 204 14.5 30.6 0.00 0.18 0.00 47 992.5
20260504203052 18 250 11.3 30.6 0.00 0.18 0.00 47 992.6
20260504202519 17 198 9.7 27.4 0.00 0.18 0.00 49 992.6
20260504202017 17 157 14.5 25.7 0.00 0.18 0.00 48 992.6
20260504201537 18 210 11.3 22.5 0.00 0.18 0.00 49 992.6
20260504201025 17 238 9.7 16.1 0.00 0.18 0.00 52 992.7
20260504200518 17 237 8.0 19.3 0.00 0.18 0.00 53 992.9
20260504200037 16 224 8.0 27.4 0.00 0.18 0.00 53 993.0
20260504195520 17 174 11.3 27.4 0.00 0.18 0.00 53 993.2
20260504195019 17 213 12.9 22.5 0.00 0.18 0.00 53 993.5
20260504194539 17 212 11.3 25.7 0.00 0.18 0.00 54 993.7
20260504194019 16 224 12.9 29.0 0.00 0.18 0.00 55 993.7
20260504193520 16 224 16.1 33.8 0.00 0.18 0.00 55 993.8
20260504193039 16 237 19.3 33.8 0.00 0.18 0.00 54 993.8
20260504192519 16 234 17.7 33.8 0.00 0.18 0.00 55 993.9
20260504192020 16 195 14.5 27.4 0.00 0.18 0.00 55 994.0
20260504191537 15 218 12.9 29.0 0.00 0.18 0.00 58 994.2
20260504191019 15 196 12.9 29.0 0.00 0.18 0.00 57 994.5
20260504190519 15 215 12.9 22.5 0.00 0.18 0.00 59 994.4
20260504190050 15 205 11.3 29.0 0.00 0.18 0.00 59 994.4
20260504185520 15 231 14.5 29.0 0.00 0.18 0.00 59 994.5
20260504185019 15 181 16.1 29.0 0.00 0.18 0.00 58 994.5
20260504184536 15 198 17.7 27.4 0.00 0.18 0.00 58 994.6
20260504184020 15 221 16.1 25.7 0.00 0.18 0.00 59 994.7
20260504183520 15 226 16.1 25.7 0.00 0.18 0.00 59 994.9
20260504183035 14 226 16.1 30.6 0.00 0.18 0.00 60 995.0
20260504182526 14 212 16.1 30.6 0.00 0.18 0.00 61 995.1
20260504182022 15 266 11.3 24.1 0.00 0.18 0.00 61 995.3
20260504181540 14 174 16.1 25.7 0.00 0.18 0.00 61 995.2
20260504181020 14 223 12.9 25.7 0.00 0.18 0.00 62 995.3
20260504180523 14 225 16.1 25.7 0.00 0.18 0.00 62 995.4
20260504180040 14 219 9.7 27.4 0.00 0.18 0.00 62 995.4
20260504175520 14 244 14.5 27.4 0.00 0.23 0.00 62 995.3
20260504175019 13 196 16.1 27.4 0.00 0.23 0.00 62 995.2
20260504174535 13 228 16.1 27.4 0.00 0.23 0.00 62 995.1
20260504174020 14 221 11.3 24.1 0.00 0.23 0.00 61 995.2
20260504173522 14 218 11.3 22.5 0.00 0.23 0.00 65 995.3
20260504173036 13 224 12.9 22.5 0.00 0.23 0.00 65 995.6
20260504172519 13 215 12.9 22.5 0.00 0.23 0.00 67 995.7
20260504172019 13 236 11.3 22.5 0.00 0.23 0.00 67 995.8
20260504171534 13 226 9.7 24.1 0.00 0.23 0.00 66 995.7
20260504171023 13 248 8.0 24.1 0.00 0.23 0.00 67 995.8
20260504170518 13 198 11.3 29.0 0.00 0.23 0.00 67 996.0
20260504151020 11 207 6.4 12.9 0.00 0.23 0.00 77 997.5
20260504150521 11 236 4.8 14.5 0.00 0.23 0.00 78 997.6
20260504141022 11 224 4.8 12.9 0.00 0.23 0.00 79 997.9
20260504140525 11 208 4.8 12.9 0.00 0.23 0.00 78 997.9
20260504130521 9 141 3.2 9.7 0.00 0.23 0.00 85 999.1
20260504110520 2 0 0.0 1.6 0.00 0.23 0.00 95 999.3
20260504100518 2 0 0.0 1.6 0.00 0.23 0.00 94 999.6